Overview Statistics Trail Chart Weather Telemetry Raw packets
 

This is the latest recevied weather packets stored in our database for station/object OK2ILA-10. If no packets are shown the sender has not sent any weather packets the latest 10 day(s).

<< 32 33 34 35 36 37 38 >>
Time Temp. Humidity Pressure Rain* Wind** Luminosity Snow
1788418317 21.67° C 53% 1020.9 hPa - - - -
1788418312 21.67° C 53% 1020.9 hPa - - - -
1788417712 21.11° C 54% 1020.9 hPa - - - -
1788417112 20° C 60% 1020.8 hPa - - - -
1788416512 18.33° C 65% 1020.8 hPa - - - -
1788415917 17.22° C 66% 1020.9 hPa - - - -
1788415911 17.22° C 66% 1020.9 hPa - - - -
1788415311 16.67° C 68% 1021 hPa - - - -
1788414711 16.11° C 69% 1021 hPa - - - -
1788414111 15° C 71% 1020.9 hPa - - - -
1788413510 14.44° C 72% 1020.9 hPa - - - -
1788412910 13.89° C 73% 1020.9 hPa - - - -
1788412319 13.89° C 73% 1020.9 hPa - - - -
1788412310 13.89° C 73% 1020.9 hPa - - - -
1788411744 13.89° C 74% 1021 hPa - - - -
1788411740 13.89° C 74% 1021 hPa - - - -
1788411144 13.33° C 74% 1021 hPa - - - -
1788411139 13.33° C 74% 1021 hPa - - - -
1788410539 13.33° C 74% 1020.9 hPa - - - -
1788409943 13.33° C 74% 1020.8 hPa - - - -
1788409939 13.33° C 74% 1020.8 hPa - - - -
1788409343 13.33° C 74% 1020.7 hPa - - - -
1788409339 13.33° C 74% 1020.7 hPa - - - -
1788408743 13.89° C 73% 1020.7 hPa - - - -
1788408738 13.89° C 73% 1020.7 hPa - - - -

* Rain since midnight (hover to see other rain measurements)
** Current wind speed in m/s (hover to see current wind gust speed)